Regional Weather Roundup
Issued by NWS Charleston, WV

Home | Current Version | Previous Version | Text Only | Print | Product List | Glossary Off
Versions: 1 2 3 4 5 6 7 8 9 10 11 12 13 14 15 16 17 18 19 20 21 22 23 24 25 26 27 28 29 30 31 32 33 34 35 36 37 38 39 40 41 42 43 44 45 46 47 48 49 50

000
ASUS41 KRLX 041310
RWRRLX
West Virginia Regional Weather Roundup
National Weather Service Charleston WV
900 AM EDT WED MAY 04 2016

Note: "fair" indicates few or no clouds below 12,000 feet with no
significant weather and/or obstructions to visibility.

WVZ003-041400-
Northern Panhandle of West Virginia

CITY           SKY/WX    TMP DP  RH WIND       PRES   REMARKS
WHEELING       CLOUDY    52  48  86 CALM      29.72S
$$

WVZ009-041400-
Northwest West Virginia

CITY           SKY/WX    TMP DP  RH WIND       PRES   REMARKS
PARKERSBURG    PTSUNNY  N/A N/A N/A W3        29.76S
$$

WVZ006-041400-
Western West Virginia

CITY           SKY/WX    TMP DP  RH WIND       PRES   REMARKS
HUNTINGTON       N/A     56  50  80 SW5       29.75F
$$

WVZ015-041400-
West Central West Virginia

CITY           SKY/WX    TMP DP  RH WIND       PRES   REMARKS
CHARLESTON     CLOUDY    53  50  89 W6        29.75S
$$

WVZ022-031-041400-
North Central West Virginia

CITY           SKY/WX    TMP DP  RH WIND       PRES   REMARKS
CLARKSBURG     CLOUDY    53  51  93 CALM      29.72S
MORGANTOWN     LGT RAIN  50  46  86 NW3       29.73S FOG
$$

WVZ025-035-042-045-041400-
Southern West Virginia

CITY           SKY/WX    TMP DP  RH WIND       PRES   REMARKS
BECKLEY        CLOUDY    49  45  86 SW7       29.76S
LOGAN          NOT AVBL
BLUEFIELD      CLOUDY    47  43  86 NW8       29.77F
LEWISBURG      CLOUDY    49  46  89 SW5       29.75S
$$

WVZ047-041400-
Northern Mountains of West Virginia

CITY           SKY/WX    TMP DP  RH WIND       PRES   REMARKS
ELKINS         CLOUDY    50  47  89 CALM      29.73F
$$

WVZ052-041400-
Eastern Panhandle of West Virginia

CITY           SKY/WX    TMP DP  RH WIND       PRES   REMARKS
MARTINSBURG      N/A     56  54  93 E3        29.71S
PETERSBURG     CLOUDY    53  50  91 CALM      29.73S
$$



USA.gov is the U.S. government's official web portal to all federal, state and local government web resources and services.